Torna al catalogo

THORAD AGENA D DEB

AttivoLEO
NORAD 4169·DEBRIS·🇺🇸 United States

Lanciato Sep 30, 1969 da Vandenberg Space Force Base

Loading…

Prossimi Passaggi (prossime 24 ore)

TLE

AggiornatoSource: Space-Track

Epoca: Sep 14, 2026, 01:31 UTC

1 04169U 69082AM  26257.06342101  .00001753  00000-0  32815-3 0  9992
2 04169  70.1821 182.0801 0033094 252.9830 106.7686 14.66201189982594

Traccia THORAD AGENA D DEB in tempo reale con AllMySat

Download on the App Store